Time,TemperatureF,DewpointF,PressureIn,WindDirection,WindDirectionDegrees,WindSpeedMPH,WindSpeedGustMPH,Humidity,HourlyPrecipIn,Conditions,Clouds,dailyrainin,SolarRadiationWatts/m^2,SoftwareType,DateUTC
2013-04-25 00:01:00,73.7,64.1,30.08,SE,126,0.0,5.0,72,0.00,,SCT035,0.00,0.00,VWS V14.00,2013-04-25 04:01:00,
2013-04-25 00:06:00,73.7,64.1,30.08,SE,126,0.0,5.0,72,0.00,,SCT035,0.00,0.00,VWS V14.00,2013-04-25 04:06:00,
2013-04-25 00:11:00,73.6,64.0,30.08,SE,126,3.0,5.0,72,0.00,,SCT035,0.00,0.00,VWS V14.00,2013-04-25 04:11:00,
2013-04-25 00:16:00,73.5,63.9,30.08,SE,126,0.0,4.0,72,0.00,,SCT035,0.00,0.00,VWS V14.00,2013-04-25 04:16:00,
2013-04-25 00:21:00,73.5,63.9,30.08,SE,126,6.0,7.0,72,0.00,,SCT035,0.00,0.00,VWS V14.00,2013-04-25 04:21:00,
2013-04-25 00:26:00,73.5,63.9,30.08,SE,126,1.0,3.0,72,0.00,,SCT035,0.00,0.00,VWS V14.00,2013-04-25 04:26:00,
2013-04-25 00:31:00,73.5,63.9,30.08,SE,126,2.0,4.0,72,0.00,,SCT035,0.00,0.00,VWS V14.00,2013-04-25 04:31:00,
2013-04-25 00:36:00,73.4,63.8,30.08,SE,126,5.0,5.0,72,0.00,,SCT035,0.00,0.00,VWS V14.00,2013-04-25 04:36:00,
2013-04-25 00:41:00,73.5,63.9,30.08,SE,126,0.0,4.0,72,0.00,,SCT035,0.00,0.00,VWS V14.00,2013-04-25 04:41:00,
2013-04-25 00:46:00,73.5,63.9,30.08,SE,126,0.0,1.0,72,0.00,,SCT035,0.00,0.00,VWS V14.00,2013-04-25 04:46:00,
2013-04-25 00:51:00,73.4,63.8,30.07,SE,126,2.0,3.0,72,0.00,,SCT035,0.00,0.00,VWS V14.00,2013-04-25 04:51:00,
2013-04-25 00:56:00,73.3,63.7,30.08,SE,126,0.0,2.0,72,0.00,,SCT035,0.00,0.00,VWS V14.00,2013-04-25 04:56:00,
2013-04-25 01:01:00,73.2,63.6,30.07,SE,126,2.0,3.0,72,0.00,,SCT035,0.00,0.00,VWS V14.00,2013-04-25 05:01:00,
2013-04-25 01:06:00,73.1,63.5,30.07,SE,126,0.0,2.0,72,0.00,,SCT035,0.00,0.00,VWS V14.00,2013-04-25 05:06:00,
2013-04-25 01:11:00,73.0,63.5,30.07,SE,126,0.0,1.0,72,0.00,,SCT035,0.00,0.00,VWS V14.00,2013-04-25 05:11:00,
2013-04-25 01:16:00,72.9,63.3,30.07,SE,126,4.0,4.0,72,0.00,,SCT035,0.00,0.00,VWS V14.00,2013-04-25 05:16:00,
2013-04-25 01:21:00,72.8,63.3,30.07,SE,126,0.0,0.0,72,0.00,,SCT035,0.00,0.00,VWS V14.00,2013-04-25 05:21:00,
2013-04-25 01:26:00,72.8,63.7,30.07,SE,126,0.0,4.0,73,0.00,,SCT035,0.00,0.00,VWS V14.00,2013-04-25 05:26:00,
2013-04-25 01:31:00,72.8,63.7,30.07,SE,126,2.0,4.0,73,0.00,,SCT035,0.00,0.00,VWS V14.00,2013-04-25 05:31:00,
2013-04-25 01:36:00,72.7,63.5,30.07,SE,126,0.0,4.0,73,0.00,,SCT035,0.00,0.00,VWS V14.00,2013-04-25 05:36:00,
2013-04-25 01:41:00,72.6,63.5,30.07,SE,126,0.0,4.0,73,0.00,,SCT035,0.00,0.00,VWS V14.00,2013-04-25 05:41:00,
2013-04-25 01:46:00,72.5,63.4,30.06,SE,126,2.0,4.0,73,0.00,,SCT035,0.00,0.00,VWS V14.00,2013-04-25 05:46:00,
2013-04-25 01:51:00,72.4,63.7,30.06,SE,126,3.0,4.0,74,0.00,,SCT035,0.00,0.00,VWS V14.00,2013-04-25 05:51:00,
2013-04-25 01:56:00,72.4,63.7,30.06,SE,126,1.0,4.0,74,0.00,,SCT035,0.00,0.00,VWS V14.00,2013-04-25 05:56:00,
2013-04-25 02:01:00,72.3,63.6,30.06,SE,126,0.0,4.0,74,0.00,,SCT035,0.00,0.00,VWS V14.00,2013-04-25 06:01:00,
2013-04-25 02:06:00,72.2,63.5,30.05,SE,126,0.0,0.0,74,0.00,,SCT035,0.00,0.00,VWS V14.00,2013-04-25 06:06:00,
2013-04-25 02:11:00,72.1,63.4,30.05,SE,126,0.0,0.0,74,0.00,,SCT035,0.00,0.00,VWS V14.00,2013-04-25 06:11:00,
2013-04-25 02:16:00,72.0,63.7,30.05,SE,126,0.0,0.0,75,0.00,,SCT035,0.00,0.00,VWS V14.00,2013-04-25 06:16:00,
2013-04-25 02:21:00,71.9,63.5,30.05,SE,126,3.0,3.0,75,0.00,,SCT035,0.00,0.00,VWS V14.00,2013-04-25 06:21:00,
2013-04-25 02:26:00,71.9,63.5,30.05,SE,126,0.0,0.0,75,0.00,,SCT035,0.00,0.00,VWS V14.00,2013-04-25 06:26:00,
2013-04-25 02:31:00,71.9,63.5,30.05,SE,126,0.0,0.0,75,0.00,,SCT035,0.00,0.00,VWS V14.00,2013-04-25 06:31:00,
2013-04-25 02:36:00,71.7,63.4,30.04,SE,126,0.0,0.0,75,0.00,,SCT035,0.00,0.00,VWS V14.00,2013-04-25 06:36:00,
2013-04-25 02:41:00,71.6,63.3,30.04,SE,126,0.0,0.0,75,0.00,,SCT035,0.00,0.00,VWS V14.00,2013-04-25 06:41:00,
2013-04-25 02:46:00,71.5,63.2,30.04,SE,126,0.0,0.0,75,0.00,,SCT035,0.00,0.00,VWS V14.00,2013-04-25 06:46:00,
2013-04-25 02:51:00,71.5,63.2,30.04,SE,126,0.0,0.0,75,0.00,,SCT035,0.00,0.00,VWS V14.00,2013-04-25 06:51:00,
2013-04-25 02:56:00,71.5,63.5,30.04,SE,126,0.0,0.0,76,0.00,,SCT035,0.00,0.00,VWS V14.00,2013-04-25 06:56:00,
2013-04-25 03:01:00,71.3,63.0,30.04,SE,126,0.0,0.0,75,0.00,,SCT035,0.00,0.00,VWS V14.00,2013-04-25 07:01:00,
2013-04-25 03:06:00,71.2,62.9,30.04,SE,126,0.0,0.0,75,0.00,,SCT035,0.00,0.00,VWS V14.00,2013-04-25 07:06:00,
2013-04-25 03:11:00,71.2,62.5,30.04,SE,126,0.0,0.0,74,0.00,,SCT035,0.00,0.00,VWS V14.00,2013-04-25 07:11:00,
2013-04-25 03:16:00,71.2,62.9,30.04,SE,126,0.0,0.0,75,0.00,,SCT035,0.00,0.00,VWS V14.00,2013-04-25 07:16:00,
2013-04-25 03:21:00,71.2,62.9,30.04,SE,126,0.0,0.0,75,0.00,,SCT035,0.00,0.00,VWS V14.00,2013-04-25 07:21:00,
2013-04-25 03:26:00,71.2,62.5,30.03,SE,126,0.0,2.0,74,0.00,,SCT035,0.00,0.00,VWS V14.00,2013-04-25 07:26:00,
2013-04-25 03:31:00,71.1,62.4,30.03,SE,126,0.0,3.0,74,0.00,,SCT035,0.00,0.00,VWS V14.00,2013-04-25 07:31:00,
2013-04-25 03:36:00,71.2,62.9,30.03,SE,126,0.0,1.0,75,0.00,,SCT035,0.00,0.00,VWS V14.00,2013-04-25 07:36:00,
2013-04-25 03:41:00,71.3,62.6,30.04,SE,126,0.0,0.0,74,0.00,,SCT035,0.00,0.00,VWS V14.00,2013-04-25 07:41:00,
2013-04-25 03:46:00,71.3,62.6,30.03,SE,126,0.0,3.0,74,0.00,,SCT035,0.00,0.00,VWS V14.00,2013-04-25 07:46:00,
2013-04-25 03:51:00,71.2,62.5,30.04,SE,126,0.0,0.0,74,0.00,,SCT035,0.00,0.00,VWS V14.00,2013-04-25 07:51:00,
2013-04-25 03:56:00,71.1,62.8,30.04,SE,126,0.0,0.0,75,0.00,,SCT035,0.00,0.00,VWS V14.00,2013-04-25 07:56:00,
2013-04-25 04:01:00,71.1,62.8,30.04,SE,126,0.0,0.0,75,0.00,,SCT035,0.00,0.00,VWS V14.00,2013-04-25 08:01:00,
2013-04-25 04:06:00,71.1,63.2,30.04,SE,126,4.0,5.0,76,0.00,,SCT035,0.00,0.00,VWS V14.00,2013-04-25 08:06:00,
2013-04-25 04:11:00,71.1,63.5,30.04,SE,126,0.0,4.0,77,0.00,,SCT035,0.00,0.00,VWS V14.00,2013-04-25 08:11:00,
2013-04-25 04:16:00,71.2,63.6,30.04,SE,126,0.0,2.0,77,0.00,,SCT035,0.00,0.00,VWS V14.00,2013-04-25 08:16:00,
2013-04-25 04:21:00,71.2,63.6,30.04,SE,126,0.0,1.0,77,0.00,,SCT035,0.00,0.00,VWS V14.00,2013-04-25 08:21:00,
2013-04-25 04:26:00,71.2,63.6,30.04,SE,126,1.0,3.0,77,0.00,,SCT035,0.00,0.00,VWS V14.00,2013-04-25 08:26:00,
2013-04-25 04:31:00,71.3,63.7,30.04,SE,126,2.0,5.0,77,0.00,,SCT035,0.00,0.00,VWS V14.00,2013-04-25 08:31:00,
2013-04-25 04:36:00,71.3,63.3,30.04,SE,126,2.0,4.0,76,0.00,,SCT035,0.00,0.00,VWS V14.00,2013-04-25 08:36:00,
2013-04-25 04:41:00,71.3,63.3,30.04,SE,126,0.0,0.0,76,0.00,,SCT035,0.00,0.00,VWS V14.00,2013-04-25 08:41:00,
2013-04-25 04:46:00,71.3,63.3,30.04,SE,126,0.0,0.0,76,0.00,,SCT035,0.00,0.00,VWS V14.00,2013-04-25 08:46:00,
2013-04-25 04:51:00,71.2,63.3,30.04,SE,126,0.0,0.0,76,0.00,,SCT035,0.00,0.00,VWS V14.00,2013-04-25 08:51:00,
2013-04-25 04:56:00,71.1,63.2,30.04,SE,126,0.0,0.0,76,0.00,,SCT035,0.00,0.00,VWS V14.00,2013-04-25 08:56:00,
2013-04-25 05:01:00,71.0,63.4,30.03,SE,126,0.0,0.0,77,0.00,,SCT035,0.00,0.00,VWS V14.00,2013-04-25 09:01:00,
2013-04-25 05:06:00,70.8,63.2,30.03,SE,126,0.0,0.0,77,0.00,,SCT035,0.00,0.00,VWS V14.00,2013-04-25 09:06:00,
2013-04-25 05:11:00,70.8,63.2,30.04,SE,126,0.0,1.0,77,0.00,,SCT035,0.00,0.00,VWS V14.00,2013-04-25 09:11:00,
2013-04-25 05:16:00,70.7,63.1,30.04,SE,126,0.0,0.0,77,0.00,,SCT035,0.00,0.00,VWS V14.00,2013-04-25 09:16:00,
2013-04-25 05:21:00,70.7,62.8,30.04,SE,126,0.0,0.0,76,0.00,,SCT035,0.00,0.00,VWS V14.00,2013-04-25 09:21:00,
2013-04-25 05:26:00,70.6,63.0,30.04,SE,126,0.0,0.0,77,0.00,,SCT035,0.00,0.00,VWS V14.00,2013-04-25 09:26:00,
2013-04-25 05:31:00,70.7,63.1,30.04,SE,126,0.0,0.0,77,0.00,,SCT035,0.00,0.00,VWS V14.00,2013-04-25 09:31:00,
2013-04-25 05:36:00,70.6,63.0,30.05,SE,126,0.0,0.0,77,0.00,,SCT035,0.00,0.00,VWS V14.00,2013-04-25 09:36:00,
2013-04-25 05:41:00,70.5,63.0,30.05,SE,126,0.0,0.0,77,0.00,,SCT035,0.00,0.00,VWS V14.00,2013-04-25 09:41:00,
2013-04-25 05:46:00,70.3,62.8,30.05,SE,126,0.0,0.0,77,0.00,,SCT035,0.00,0.00,VWS V14.00,2013-04-25 09:46:00,
2013-04-25 05:51:00,70.2,63.0,30.05,SE,126,0.0,0.0,78,0.00,,SCT035,0.00,0.00,VWS V14.00,2013-04-25 09:51:00,
2013-04-25 05:56:00,70.1,62.6,30.05,SE,126,0.0,0.0,77,0.00,,SCT035,0.00,0.00,VWS V14.00,2013-04-25 09:56:00,
2013-04-25 06:01:00,70.1,62.9,30.06,SE,126,0.0,0.0,78,0.00,,SCT035,0.00,0.00,VWS V14.00,2013-04-25 10:01:00,
2013-04-25 06:06:00,70.1,63.3,30.06,SE,126,0.0,0.0,79,0.00,,SCT035,0.00,0.00,VWS V14.00,2013-04-25 10:06:00,
2013-04-25 06:11:00,69.9,63.1,30.06,SE,126,0.0,0.0,79,0.00,,SCT035,0.00,0.00,VWS V14.00,2013-04-25 10:11:00,
2013-04-25 06:16:00,69.9,63.1,30.06,SE,126,0.0,0.0,79,0.00,,SCT035,0.00,0.00,VWS V14.00,2013-04-25 10:16:00,
2013-04-25 06:21:00,69.7,62.9,30.07,SE,126,0.0,0.0,79,0.00,,SCT035,0.00,0.00,VWS V14.00,2013-04-25 10:21:00,
2013-04-25 06:26:00,69.5,62.7,30.07,SE,126,0.0,1.0,79,0.00,,SCT035,0.01,0.00,VWS V14.00,2013-04-25 10:26:00,
2013-04-25 06:31:00,69.3,62.2,30.07,SE,126,0.0,0.0,78,0.00,,SCT035,0.01,0.00,VWS V14.00,2013-04-25 10:31:00,
2013-04-25 06:36:00,69.3,62.5,30.07,SE,126,0.0,0.0,79,0.00,,SCT035,0.01,0.00,VWS V14.00,2013-04-25 10:36:00,
2013-04-25 06:41:00,69.3,62.9,30.07,SE,126,0.0,0.0,80,0.00,,SCT035,0.01,0.00,VWS V14.00,2013-04-25 10:41:00,
2013-04-25 06:46:00,69.3,62.5,30.07,SE,126,0.0,0.0,79,0.00,,SCT035,0.01,0.00,VWS V14.00,2013-04-25 10:46:00,
2013-04-25 06:51:00,69.2,62.4,30.07,SE,126,0.0,2.0,79,0.00,,SCT035,0.01,5.00,VWS V14.00,2013-04-25 10:51:00,
2013-04-25 06:56:00,69.1,62.3,30.08,SSE,148,0.0,0.0,79,0.00,,SCT035,0.01,14.00,VWS V14.00,2013-04-25 10:56:00,
2013-04-25 07:01:00,69.2,62.8,30.08,SSE,148,0.0,0.0,80,0.00,,SCT035,0.01,28.00,VWS V14.00,2013-04-25 11:01:00,
2013-04-25 07:06:00,69.4,63.0,30.08,SSE,148,0.0,0.0,80,0.00,,SCT035,0.01,74.00,VWS V14.00,2013-04-25 11:06:00,
2013-04-25 07:11:00,69.5,63.1,30.08,SSE,148,0.0,1.0,80,0.00,,SCT035,0.01,105.00,VWS V14.00,2013-04-25 11:11:00,
2013-04-25 07:16:00,69.7,63.3,30.09,SSE,148,0.0,0.0,80,0.00,,SCT035,0.01,127.00,VWS V14.00,2013-04-25 11:16:00,
2013-04-25 07:21:00,70.0,63.5,30.09,SSE,148,0.0,0.0,80,0.00,,SCT035,0.01,142.00,VWS V14.00,2013-04-25 11:21:00,
2013-04-25 07:26:00,70.3,63.5,30.09,SSE,148,0.0,0.0,79,0.00,,SCT035,0.01,163.00,VWS V14.00,2013-04-25 11:26:00,
2013-04-25 07:31:00,70.6,63.8,30.09,SE,131,0.0,0.0,79,0.00,,SCT035,0.01,179.00,VWS V14.00,2013-04-25 11:31:00,
2013-04-25 07:36:00,70.9,64.1,30.09,SE,131,0.0,0.0,79,0.00,,FEW035,0.01,185.00,VWS V14.00,2013-04-25 11:36:00,
2013-04-25 07:41:00,71.2,64.4,30.10,SE,131,0.0,0.0,79,0.00,,FEW035,0.01,195.00,VWS V14.00,2013-04-25 11:41:00,
2013-04-25 07:46:00,71.6,64.4,30.10,SE,131,0.0,0.0,78,0.00,,FEW035,0.01,197.00,VWS V14.00,2013-04-25 11:46:00,
2013-04-25 07:51:00,72.0,64.8,30.10,SE,131,0.0,0.0,78,0.00,,FEW035,0.01,218.00,VWS V14.00,2013-04-25 11:51:00,
2013-04-25 07:56:00,72.7,65.1,30.10,South,183,0.0,0.0,77,0.00,,FEW035,0.01,204.00,VWS V14.00,2013-04-25 11:56:00,
2013-04-25 08:01:00,73.0,64.2,30.10,South,183,0.0,0.0,74,0.00,,FEW035,0.01,202.00,VWS V14.00,2013-04-25 12:01:00,
2013-04-25 08:06:00,73.4,64.2,30.10,South,183,0.0,1.0,73,0.00,,FEW035,0.01,251.00,VWS V14.00,2013-04-25 12:06:00,
2013-04-25 08:11:00,73.7,64.1,30.10,South,183,3.0,3.0,72,0.00,,FEW035,0.01,257.00,VWS V14.00,2013-04-25 12:11:00,
2013-04-25 08:16:00,73.9,63.9,30.11,SE,130,2.0,3.0,71,0.00,,FEW035,0.01,207.00,VWS V14.00,2013-04-25 12:16:00,
2013-04-25 08:21:00,74.0,64.0,30.11,SE,130,0.0,2.0,71,0.00,,FEW035,0.01,183.00,VWS V14.00,2013-04-25 12:21:00,
2013-04-25 08:26:00,74.3,63.9,30.11,SE,129,4.0,4.0,70,0.00,,FEW035,0.01,178.00,VWS V14.00,2013-04-25 12:26:00,
2013-04-25 08:31:00,74.6,63.8,30.11,SE,128,3.0,5.0,69,0.00,,FEW035,0.01,174.00,VWS V14.00,2013-04-25 12:31:00,
2013-04-25 08:36:00,74.9,63.6,30.11,ENE,71,0.0,4.0,68,0.00,,FEW035,0.01,169.00,VWS V14.00,2013-04-25 12:36:00,
2013-04-25 08:41:00,75.0,63.7,30.11,ENE,76,4.0,4.0,68,0.00,,FEW035,0.01,169.00,VWS V14.00,2013-04-25 12:41:00,
2013-04-25 08:46:00,75.3,63.6,30.11,ESE,119,6.0,7.0,67,0.00,,FEW035,0.01,172.00,VWS V14.00,2013-04-25 12:46:00,
2013-04-25 08:51:00,75.3,62.7,30.11,ESE,107,6.0,8.0,65,0.00,,FEW035,0.01,178.00,VWS V14.00,2013-04-25 12:51:00,
2013-04-25 08:56:00,75.4,61.9,30.11,SE,126,4.0,6.0,63,0.00,,FEW035,0.01,178.00,VWS V14.00,2013-04-25 12:56:00,
2013-04-25 09:01:00,75.6,62.1,30.11,ESE,115,3.0,9.0,63,0.00,,FEW035,0.01,181.00,VWS V14.00,2013-04-25 13:01:00,
2013-04-25 09:06:00,75.7,62.2,30.11,ESE,113,5.0,6.0,63,0.00,,FEW035,0.01,186.00,VWS V14.00,2013-04-25 13:06:00,
2013-04-25 09:11:00,76.0,62.0,30.12,ESE,112,7.0,8.0,62,0.00,,FEW035,0.01,186.00,VWS V14.00,2013-04-25 13:11:00,
2013-04-25 09:16:00,76.1,62.2,30.11,SSE,147,9.0,9.0,62,0.00,,FEW035,0.01,195.00,VWS V14.00,2013-04-25 13:16:00,
2013-04-25 09:21:00,76.2,61.8,30.12,ESE,115,3.0,3.0,61,0.00,,FEW035,0.01,109.00,VWS V14.00,2013-04-25 13:21:00,
2013-04-25 09:26:00,76.4,62.9,30.12,ESE,121,5.0,6.0,63,0.00,,FEW035,0.01,137.00,VWS V14.00,2013-04-25 13:26:00,
2013-04-25 09:31:00,76.4,62.0,30.12,ESE,105,6.0,7.0,61,0.00,,FEW035,0.01,81.00,VWS V14.00,2013-04-25 13:31:00,
2013-04-25 09:36:00,76.0,62.0,30.12,East,90,5.0,10.0,62,0.00,,SCT035,0.01,197.00,VWS V14.00,2013-04-25 13:36:00,
2013-04-25 09:41:00,75.9,62.0,30.12,East,82,5.0,9.0,62,0.00,,SCT035,0.01,200.00,VWS V14.00,2013-04-25 13:41:00,
2013-04-25 09:46:00,76.2,62.2,30.12,ESE,117,0.0,7.0,62,0.00,,SCT035,0.01,200.00,VWS V14.00,2013-04-25 13:46:00,
2013-04-25 09:51:00,76.6,62.2,30.12,SSE,147,0.0,5.0,61,0.00,,SCT035,0.01,204.00,VWS V14.00,2013-04-25 13:51:00,
2013-04-25 09:56:00,76.9,62.9,30.13,ESE,109,5.0,10.0,62,0.00,,SCT035,0.01,207.00,VWS V14.00,2013-04-25 13:56:00,
2013-04-25 10:01:00,76.4,62.9,30.13,SSE,158,2.0,6.0,63,0.00,,SCT035,0.01,213.00,VWS V14.00,2013-04-25 14:01:00,
2013-04-25 10:06:00,76.6,63.1,30.13,SE,126,0.0,1.0,63,0.00,,SCT035,0.01,218.00,VWS V14.00,2013-04-25 14:06:00,
2013-04-25 10:11:00,77.1,63.1,30.13,ESE,118,4.0,6.0,62,0.00,,SCT035,0.01,220.00,VWS V14.00,2013-04-25 14:11:00,
2013-04-25 10:16:00,77.0,62.5,30.13,East,99,4.0,6.0,61,0.00,,SCT035,0.01,171.00,VWS V14.00,2013-04-25 14:16:00,
2013-04-25 10:21:00,76.7,62.7,30.13,ESE,107,4.0,4.0,62,0.00,,SCT035,0.01,91.00,VWS V14.00,2013-04-25 14:21:00,
2013-04-25 10:26:00,76.6,62.6,30.13,ESE,107,0.0,1.0,62,0.00,,SCT035,0.01,234.00,VWS V14.00,2013-04-25 14:26:00,
2013-04-25 10:31:00,76.9,62.9,30.13,SE,133,4.0,11.0,62,0.00,,SCT035,0.01,227.00,VWS V14.00,2013-04-25 14:31:00,
2013-04-25 10:36:00,76.9,62.4,30.13,East,88,5.0,9.0,61,0.00,,SCT035,0.01,204.00,VWS V14.00,2013-04-25 14:36:00,
2013-04-25 10:41:00,76.5,62.1,30.13,South,186,3.0,4.0,61,0.00,,SCT035,0.01,100.00,VWS V14.00,2013-04-25 14:41:00,
2013-04-25 10:46:00,76.5,62.5,30.13,SE,144,0.0,3.0,62,0.00,,SCT035,0.01,116.00,VWS V14.00,2013-04-25 14:46:00,
2013-04-25 10:51:00,77.0,63.5,30.13,ESE,119,3.0,13.0,63,0.00,,SCT035,0.01,218.00,VWS V14.00,2013-04-25 14:51:00,
2013-04-25 10:56:00,77.3,63.3,30.13,ESE,117,9.0,10.0,62,0.00,,SCT035,0.01,209.00,VWS V14.00,2013-04-25 14:56:00,
2013-04-25 11:01:00,77.3,62.8,30.13,East,100,2.0,5.0,61,0.00,,SCT035,0.01,214.00,VWS V14.00,2013-04-25 15:01:00,
2013-04-25 11:06:00,77.2,63.2,30.13,ESE,109,5.0,10.0,62,0.00,,SCT035,0.01,207.00,VWS V14.00,2013-04-25 15:06:00,
2013-04-25 11:11:00,77.4,62.9,30.13,SE,132,5.0,8.0,61,0.00,,SCT035,0.01,209.00,VWS V14.00,2013-04-25 15:11:00,
2013-04-25 11:16:00,77.4,62.9,30.13,East,96,6.0,8.0,61,0.00,,SCT035,0.01,163.00,VWS V14.00,2013-04-25 15:16:00,
2013-04-25 11:21:00,77.1,62.6,30.14,ESE,105,5.0,11.0,61,0.00,,SCT035,0.01,207.00,VWS V14.00,2013-04-25 15:21:00,
2013-04-25 11:26:00,77.3,62.8,30.14,East,101,4.0,7.0,61,0.00,,SCT035,0.01,200.00,VWS V14.00,2013-04-25 15:26:00,
2013-04-25 11:31:00,77.6,62.6,30.13,East,98,9.0,12.0,60,0.00,,SCT035,0.01,197.00,VWS V14.00,2013-04-25 15:31:00,
2013-04-25 11:36:00,77.6,62.6,30.13,ESE,113,8.0,10.0,60,0.00,,SCT035,0.01,193.00,VWS V14.00,2013-04-25 15:36:00,
2013-04-25 11:41:00,78.1,62.6,30.13,ESE,109,3.0,5.0,59,0.00,,SCT035,0.01,190.00,VWS V14.00,2013-04-25 15:41:00,
2013-04-25 11:46:00,77.5,62.5,30.13,ESE,107,9.0,12.0,60,0.00,,SCT035,0.01,192.00,VWS V14.00,2013-04-25 15:46:00,
2013-04-25 11:51:00,77.4,62.9,30.13,ESE,113,0.0,0.0,61,0.00,,SCT035,0.01,190.00,VWS V14.00,2013-04-25 15:51:00,
2013-04-25 11:56:00,78.0,63.0,30.13,SE,139,6.0,13.0,60,0.00,,SCT035,0.01,188.00,VWS V14.00,2013-04-25 15:56:00,
2013-04-25 12:01:00,78.2,61.7,30.13,ENE,61,4.0,10.0,57,0.00,,SCT035,0.01,188.00,VWS V14.00,2013-04-25 16:01:00,
2013-04-25 12:06:00,77.7,62.7,30.13,ESE,115,8.0,10.0,60,0.00,,SCT035,0.01,188.00,VWS V14.00,2013-04-25 16:06:00,
2013-04-25 12:11:00,77.4,62.0,30.13,East,101,2.0,3.0,59,0.00,,SCT035,0.01,188.00,VWS V14.00,2013-04-25 16:11:00,
2013-04-25 12:16:00,77.8,63.8,30.13,ESE,111,7.0,12.0,62,0.00,,SCT035,0.01,195.00,VWS V14.00,2013-04-25 16:16:00,
2013-04-25 12:21:00,78.4,62.4,30.13,ENE,69,5.0,13.0,58,0.00,,SCT035,0.01,190.00,VWS V14.00,2013-04-25 16:21:00,
2013-04-25 12:26:00,78.1,61.6,30.13,ENE,65,5.0,7.0,57,0.00,,SCT035,0.01,185.00,VWS V14.00,2013-04-25 16:26:00,
2013-04-25 12:31:00,78.1,63.1,30.13,ESE,117,7.0,12.0,60,0.00,,SCT035,0.01,183.00,VWS V14.00,2013-04-25 16:31:00,
2013-04-25 12:36:00,78.2,62.2,30.13,ESE,121,2.0,4.0,58,0.00,,SCT035,0.01,181.00,VWS V14.00,2013-04-25 16:36:00,
2013-04-25 12:41:00,78.3,62.8,30.13,ESE,108,7.0,10.0,59,0.00,,SCT035,0.01,181.00,VWS V14.00,2013-04-25 16:41:00,
2013-04-25 12:46:00,78.3,63.8,30.13,East,101,7.0,11.0,61,0.00,,SCT035,0.01,179.00,VWS V14.00,2013-04-25 16:46:00,
2013-04-25 12:51:00,78.0,63.0,30.13,SE,132,9.0,10.0,60,0.00,,SCT035,0.01,179.00,VWS V14.00,2013-04-25 16:51:00,
2013-04-25 12:56:00,78.6,62.6,30.12,East,90,10.0,12.0,58,0.00,,SCT035,0.01,176.00,VWS V14.00,2013-04-25 16:56:00,
2013-04-25 13:01:00,78.5,62.5,30.12,ESE,120,9.0,13.0,58,0.00,,SCT035,0.01,178.00,VWS V14.00,2013-04-25 17:01:00,
2013-04-25 13:06:00,78.1,62.1,30.12,ENE,66,5.0,6.0,58,0.00,,SCT035,0.01,181.00,VWS V14.00,2013-04-25 17:06:00,
2013-04-25 13:11:00,77.8,62.8,30.12,ESE,102,6.0,11.0,60,0.00,,SCT035,0.01,179.00,VWS V14.00,2013-04-25 17:11:00,
2013-04-25 13:17:00,77.9,62.4,30.12,ESE,110,5.0,10.0,59,0.00,,SCT035,0.01,179.00,VWS V14.00,2013-04-25 17:17:00,
2013-04-25 13:22:00,78.1,63.1,30.12,ENE,65,9.0,10.0,60,0.00,,SCT035,0.01,181.00,VWS V14.00,2013-04-25 17:22:00,
2013-04-25 13:27:00,78.1,63.1,30.12,SE,132,11.0,12.0,60,0.00,,SCT035,0.01,63.00,VWS V14.00,2013-04-25 17:27:00,
2013-04-25 13:32:00,78.2,62.7,30.12,ESE,114,3.0,7.0,59,0.00,,SCT035,0.01,181.00,VWS V14.00,2013-04-25 17:32:00,
2013-04-25 13:37:00,78.3,63.8,30.12,East,85,9.0,9.0,61,0.00,,SCT035,0.01,185.00,VWS V14.00,2013-04-25 17:37:00,
2013-04-25 13:42:00,78.5,63.5,30.12,ESE,104,7.0,13.0,60,0.00,,SCT035,0.01,60.00,VWS V14.00,2013-04-25 17:42:00,
2013-04-25 13:47:00,78.0,63.0,30.12,East,89,5.0,12.0,60,0.00,,SCT035,0.01,183.00,VWS V14.00,2013-04-25 17:47:00,
2013-04-25 13:52:00,78.6,63.1,30.12,ENE,67,12.0,13.0,59,0.00,,SCT035,0.01,181.00,VWS V14.00,2013-04-25 17:52:00,
2013-04-25 13:57:00,78.4,62.4,30.12,NE,53,1.0,4.0,58,0.00,,SCT035,0.01,181.00,VWS V14.00,2013-04-25 17:57:00,
2013-04-25 14:02:00,78.3,63.3,30.12,ESE,119,9.0,11.0,60,0.00,,SCT035,0.01,179.00,VWS V14.00,2013-04-25 18:02:00,
2013-04-25 14:07:00,78.3,63.8,30.12,ESE,113,7.0,7.0,61,0.00,,SCT035,0.01,178.00,VWS V14.00,2013-04-25 18:07:00,
2013-04-25 14:12:00,79.0,64.4,30.12,East,98,12.0,12.0,61,0.00,,SCT035,0.01,178.00,VWS V14.00,2013-04-25 18:12:00,
2013-04-25 14:17:00,78.7,63.7,30.12,ESE,118,0.0,7.0,60,0.00,,SCT035,0.01,179.00,VWS V14.00,2013-04-25 18:17:00,
2013-04-25 14:22:00,78.7,63.7,30.12,ESE,119,5.0,9.0,60,0.00,,SCT035,0.01,174.00,VWS V14.00,2013-04-25 18:22:00,
2013-04-25 14:27:00,78.5,63.0,30.12,ESE,111,5.0,11.0,59,0.00,,SCT035,0.01,176.00,VWS V14.00,2013-04-25 18:27:00,
2013-04-25 14:32:00,78.7,63.2,30.12,East,99,5.0,13.0,59,0.00,,SCT035,0.01,174.00,VWS V14.00,2013-04-25 18:32:00,
2013-04-25 14:37:00,78.5,62.5,30.12,ESE,107,10.0,16.0,58,0.00,,SCT035,0.01,165.00,VWS V14.00,2013-04-25 18:37:00,
2013-04-25 14:42:00,78.6,63.1,30.11,ESE,115,5.0,14.0,59,0.00,,SCT035,0.01,172.00,VWS V14.00,2013-04-25 18:42:00,
2013-04-25 14:47:00,78.9,62.9,30.11,SE,130,7.0,10.0,58,0.00,,SCT035,0.01,172.00,VWS V14.00,2013-04-25 18:47:00,
2013-04-25 14:52:00,79.0,63.0,30.11,ESE,108,10.0,10.0,58,0.00,,SCT035,0.01,171.00,VWS V14.00,2013-04-25 18:52:00,
2013-04-25 14:57:00,79.3,63.3,30.11,ESE,121,5.0,9.0,58,0.00,,SCT035,0.01,165.00,VWS V14.00,2013-04-25 18:57:00,
2013-04-25 15:02:00,79.1,62.6,30.11,East,95,6.0,9.0,57,0.00,,SCT035,0.01,169.00,VWS V14.00,2013-04-25 19:02:00,
2013-04-25 15:07:00,78.6,63.6,30.11,ENE,71,5.0,5.0,60,0.00,,SCT035,0.01,169.00,VWS V14.00,2013-04-25 19:07:00,
2013-04-25 15:12:00,79.0,63.5,30.11,SE,132,6.0,11.0,59,0.00,,SCT035,0.01,165.00,VWS V14.00,2013-04-25 19:12:00,
2013-04-25 15:17:00,79.6,63.5,30.10,ESE,114,9.0,12.0,58,0.00,,SCT035,0.01,165.00,VWS V14.00,2013-04-25 19:17:00,
2013-04-25 15:22:00,79.0,63.5,30.10,SE,145,9.0,12.0,59,0.00,,SCT035,0.01,165.00,VWS V14.00,2013-04-25 19:22:00,
2013-04-25 15:27:00,79.2,63.7,30.10,East,87,7.0,13.0,59,0.00,,SCT035,0.01,162.00,VWS V14.00,2013-04-25 19:27:00,
2013-04-25 15:32:00,78.6,63.6,30.10,ESE,122,8.0,11.0,60,0.00,,SCT035,0.01,160.00,VWS V14.00,2013-04-25 19:32:00,
2013-04-25 15:37:00,78.8,63.8,30.10,ESE,121,12.0,12.0,60,0.00,,SCT035,0.01,158.00,VWS V14.00,2013-04-25 19:37:00,
2013-04-25 15:42:00,79.3,63.3,30.09,ESE,112,13.0,13.0,58,0.00,,SCT035,0.01,156.00,VWS V14.00,2013-04-25 19:42:00,
2013-04-25 15:47:00,78.7,63.2,30.09,NE,55,12.0,12.0,59,0.00,,SCT035,0.01,156.00,VWS V14.00,2013-04-25 19:47:00,
2013-04-25 15:52:00,78.4,64.3,30.09,ESE,103,9.0,13.0,62,0.00,,SCT035,0.01,148.00,VWS V14.00,2013-04-25 19:52:00,
2013-04-25 15:57:00,78.2,63.2,30.09,East,80,6.0,6.0,60,0.00,,SCT035,0.01,111.00,VWS V14.00,2013-04-25 19:57:00,
2013-04-25 16:02:00,78.6,63.6,30.09,East,90,9.0,10.0,60,0.00,,SCT035,0.01,149.00,VWS V14.00,2013-04-25 20:02:00,
2013-04-25 16:07:00,78.4,62.9,30.09,East,101,5.0,8.0,59,0.00,,SCT035,0.01,149.00,VWS V14.00,2013-04-25 20:07:00,
2013-04-25 16:12:00,78.3,63.3,30.08,East,92,9.0,15.0,60,0.00,,SCT035,0.01,144.00,VWS V14.00,2013-04-25 20:12:00,
2013-04-25 16:17:00,78.2,63.7,30.08,ESE,119,8.0,12.0,61,0.00,,SCT035,0.01,132.00,VWS V14.00,2013-04-25 20:17:00,
2013-04-25 16:22:00,78.5,62.5,30.08,ESE,113,11.0,14.0,58,0.00,,SCT035,0.01,142.00,VWS V14.00,2013-04-25 20:22:00,
2013-04-25 16:27:00,78.4,63.4,30.08,ESE,121,7.0,11.0,60,0.00,,SCT035,0.01,149.00,VWS V14.00,2013-04-25 20:27:00,
2013-04-25 16:32:00,78.2,63.7,30.08,ESE,104,12.0,16.0,61,0.00,,SCT035,0.01,146.00,VWS V14.00,2013-04-25 20:32:00,
2013-04-25 16:37:00,78.2,62.7,30.08,East,97,10.0,13.0,59,0.00,,SCT035,0.01,142.00,VWS V14.00,2013-04-25 20:37:00,
2013-04-25 16:42:00,77.9,62.9,30.08,ESE,118,11.0,11.0,60,0.00,,SCT035,0.01,142.00,VWS V14.00,2013-04-25 20:42:00,
2013-04-25 16:47:00,78.0,63.0,30.08,East,101,6.0,11.0,60,0.00,,SCT035,0.01,141.00,VWS V14.00,2013-04-25 20:47:00,
2013-04-25 16:52:00,78.7,63.2,30.08,SE,128,7.0,12.0,59,0.00,,SCT035,0.01,139.00,VWS V14.00,2013-04-25 20:52:00,
2013-04-25 16:57:00,78.6,63.1,30.08,ESE,118,7.0,12.0,59,0.00,,SCT035,0.01,139.00,VWS V14.00,2013-04-25 20:57:00,
2013-04-25 17:02:00,78.2,62.2,30.08,ESE,120,8.0,11.0,58,0.00,,SCT035,0.01,137.00,VWS V14.00,2013-04-25 21:02:00,
2013-04-25 17:07:00,78.1,63.1,30.09,East,92,9.0,13.0,60,0.00,,SCT035,0.01,137.00,VWS V14.00,2013-04-25 21:07:00,
2013-04-25 17:12:00,77.9,63.4,30.09,East,100,11.0,12.0,61,0.00,,SCT035,0.01,137.00,VWS V14.00,2013-04-25 21:12:00,
2013-04-25 17:17:00,77.8,62.3,30.09,ESE,104,6.0,12.0,59,0.00,,SCT035,0.01,139.00,VWS V14.00,2013-04-25 21:17:00,
2013-04-25 17:22:00,77.8,62.8,30.09,SE,129,4.0,7.0,60,0.00,,SCT035,0.01,135.00,VWS V14.00,2013-04-25 21:22:00,
2013-04-25 17:27:00,78.1,63.6,30.08,ESE,119,5.0,11.0,61,0.00,,SCT035,0.01,132.00,VWS V14.00,2013-04-25 21:27:00,
2013-04-25 17:32:00,78.0,63.5,30.09,ESE,105,10.0,10.0,61,0.00,,SCT035,0.01,130.00,VWS V14.00,2013-04-25 21:32:00,
2013-04-25 17:37:00,77.8,62.8,30.09,ENE,76,6.0,12.0,60,0.00,,SCT035,0.01,130.00,VWS V14.00,2013-04-25 21:37:00,
2013-04-25 17:42:00,77.5,63.5,30.09,East,91,8.0,12.0,62,0.00,,SCT035,0.01,132.00,VWS V14.00,2013-04-25 21:42:00,
2013-04-25 17:47:00,77.5,63.5,30.09,East,97,11.0,13.0,62,0.00,,SCT035,0.01,123.00,VWS V14.00,2013-04-25 21:47:00,
2013-04-25 17:52:00,77.3,63.7,30.09,East,93,7.0,9.0,63,0.00,,SCT035,0.01,121.00,VWS V14.00,2013-04-25 21:52:00,
2013-04-25 17:57:00,77.2,63.6,30.09,ESE,121,6.0,9.0,63,0.00,,SCT035,0.01,118.00,VWS V14.00,2013-04-25 21:57:00,
2013-04-25 18:02:00,77.4,63.8,30.09,ESE,113,10.0,13.0,63,0.00,,SCT035,0.01,114.00,VWS V14.00,2013-04-25 22:02:00,
2013-04-25 18:07:00,77.4,62.9,30.09,ENE,65,8.0,14.0,61,0.00,,SCT035,0.01,111.00,VWS V14.00,2013-04-25 22:07:00,
2013-04-25 18:12:00,77.2,63.6,30.10,SSE,157,11.0,12.0,63,0.00,,SCT035,0.01,107.00,VWS V14.00,2013-04-25 22:12:00,
2013-04-25 18:17:00,77.2,63.2,30.10,ENE,71,5.0,11.0,62,0.00,,SCT035,0.01,102.00,VWS V14.00,2013-04-25 22:17:00,
2013-04-25 18:22:00,77.2,63.2,30.10,East,86,11.0,12.0,62,0.00,,SCT035,0.01,98.00,VWS V14.00,2013-04-25 22:22:00,
2013-04-25 18:27:00,76.9,63.4,30.10,ESE,114,6.0,10.0,63,0.00,,SCT035,0.01,90.00,VWS V14.00,2013-04-25 22:27:00,
2013-04-25 18:32:00,76.7,63.2,30.10,ESE,105,7.0,11.0,63,0.00,,SKC,0.01,83.00,VWS V14.00,2013-04-25 22:32:00,
2013-04-25 18:37:00,76.7,63.2,30.10,East,95,5.0,7.0,63,0.00,,SKC,0.01,84.00,VWS V14.00,2013-04-25 22:37:00,
2013-04-25 18:42:00,76.9,63.8,30.10,ESE,105,12.0,12.0,64,0.00,,SKC,0.01,79.00,VWS V14.00,2013-04-25 22:42:00,
2013-04-25 18:47:00,76.6,62.6,30.10,ESE,102,11.0,11.0,62,0.00,,SKC,0.01,72.00,VWS V14.00,2013-04-25 22:47:00,
2013-04-25 18:52:00,76.5,63.0,30.10,East,98,8.0,9.0,63,0.00,,SKC,0.01,69.00,VWS V14.00,2013-04-25 22:52:00,
2013-04-25 18:57:00,76.6,62.2,30.10,ESE,105,12.0,12.0,61,0.00,,SKC,0.01,63.00,VWS V14.00,2013-04-25 22:57:00,
2013-04-25 19:02:00,76.6,63.1,30.10,ESE,113,10.0,11.0,63,0.00,,SKC,0.01,58.00,VWS V14.00,2013-04-25 23:02:00,
2013-04-25 19:07:00,76.3,62.3,30.10,ESE,117,4.0,9.0,62,0.00,,SKC,0.01,53.00,VWS V14.00,2013-04-25 23:07:00,
2013-04-25 19:12:00,76.2,62.2,30.10,ESE,113,8.0,12.0,62,0.00,,SKC,0.01,46.00,VWS V14.00,2013-04-25 23:12:00,
2013-04-25 19:17:00,76.0,62.5,30.10,ESE,118,5.0,15.0,63,0.00,,SKC,0.01,39.00,VWS V14.00,2013-04-25 23:17:00,
2013-04-25 19:22:00,75.8,62.3,30.10,East,100,5.0,6.0,63,0.00,,SKC,0.01,18.00,VWS V14.00,2013-04-25 23:22:00,
2013-04-25 19:27:00,75.7,62.2,30.10,ESE,109,7.0,10.0,63,0.00,,SKC,0.01,14.00,VWS V14.00,2013-04-25 23:27:00,
2013-04-25 19:32:00,75.7,62.2,30.10,East,90,10.0,10.0,63,0.00,,CLR,0.01,11.00,VWS V14.00,2013-04-25 23:32:00,
2013-04-25 19:37:00,75.5,62.0,30.10,East,99,7.0,9.0,63,0.00,,CLR,0.01,7.00,VWS V14.00,2013-04-25 23:37:00,
2013-04-25 19:42:00,75.4,62.4,30.10,ESE,103,6.0,6.0,64,0.00,,CLR,0.01,5.00,VWS V14.00,2013-04-25 23:42:00,
2013-04-25 19:47:00,75.2,62.2,30.10,ESE,103,5.0,9.0,64,0.00,,CLR,0.01,0.00,VWS V14.00,2013-04-25 23:47:00,
2013-04-25 19:52:00,75.1,62.5,30.11,ESE,113,5.0,11.0,65,0.00,,CLR,0.01,0.00,VWS V14.00,2013-04-25 23:52:00,
2013-04-25 19:57:00,75.0,62.5,30.11,ESE,111,5.0,10.0,65,0.00,,CLR,0.01,0.00,VWS V14.00,2013-04-25 23:57:00,
2013-04-25 20:02:00,74.9,62.3,30.11,ESE,111,1.0,4.0,65,0.00,,CLR,0.01,0.00,VWS V14.00,2013-04-26 00:02:00,
2013-04-25 20:07:00,74.8,62.3,30.11,ESE,110,4.0,6.0,65,0.00,,CLR,0.01,0.00,VWS V14.00,2013-04-26 00:07:00,
2013-04-25 20:12:00,74.8,62.7,30.11,ESE,110,0.0,4.0,66,0.00,,CLR,0.01,0.00,VWS V14.00,2013-04-26 00:12:00,
2013-04-25 20:17:00,74.6,62.5,30.11,ESE,110,4.0,5.0,66,0.00,,CLR,0.01,0.00,VWS V14.00,2013-04-26 00:17:00,
2013-04-25 20:22:00,74.6,62.9,30.12,ESE,110,3.0,4.0,67,0.00,,CLR,0.01,0.00,VWS V14.00,2013-04-26 00:22:00,
2013-04-25 20:27:00,74.5,62.4,30.12,ESE,110,4.0,5.0,66,0.00,,CLR,0.01,0.00,VWS V14.00,2013-04-26 00:27:00,
2013-04-25 20:32:00,74.4,62.7,30.12,ESE,109,2.0,4.0,67,0.00,,CLR,0.01,0.00,VWS V14.00,2013-04-26 00:32:00,
2013-04-25 20:37:00,74.3,62.6,30.12,ESE,108,3.0,6.0,67,0.00,,CLR,0.01,0.00,VWS V14.00,2013-04-26 00:37:00,
2013-04-25 20:42:00,74.3,62.6,30.12,ESE,105,4.0,5.0,67,0.00,,CLR,0.01,0.00,VWS V14.00,2013-04-26 00:42:00,
2013-04-25 20:47:00,74.2,62.5,30.12,ESE,105,9.0,9.0,67,0.00,,CLR,0.01,0.00,VWS V14.00,2013-04-26 00:47:00,
2013-04-25 20:52:00,74.1,62.9,30.12,ESE,105,3.0,5.0,68,0.00,,CLR,0.01,0.00,VWS V14.00,2013-04-26 00:52:00,
2013-04-25 20:57:00,74.0,62.8,30.12,ESE,105,1.0,2.0,68,0.00,,CLR,0.01,0.00,VWS V14.00,2013-04-26 00:57:00,
2013-04-25 21:02:00,73.9,62.3,30.12,ESE,105,3.0,4.0,67,0.00,,CLR,0.01,0.00,VWS V14.00,2013-04-26 01:02:00,
2013-04-25 21:07:00,73.9,62.7,30.12,ESE,105,0.0,0.0,68,0.00,,CLR,0.01,0.00,VWS V14.00,2013-04-26 01:07:00,
2013-04-25 21:12:00,73.8,62.6,30.12,ESE,105,4.0,5.0,68,0.00,,CLR,0.01,0.00,VWS V14.00,2013-04-26 01:12:00,
2013-04-25 21:17:00,73.8,63.0,30.12,ESE,105,0.0,4.0,69,0.00,,CLR,0.01,0.00,VWS V14.00,2013-04-26 01:17:00,
2013-04-25 21:22:00,73.7,62.5,30.13,ESE,105,0.0,4.0,68,0.00,,CLR,0.01,0.00,VWS V14.00,2013-04-26 01:22:00,
2013-04-25 21:27:00,73.6,62.8,30.13,ESE,105,3.0,4.0,69,0.00,,CLR,0.01,0.00,VWS V14.00,2013-04-26 01:27:00,
2013-04-25 21:32:00,73.6,62.8,30.13,ESE,105,1.0,3.0,69,0.00,,CLR,0.01,0.00,VWS V14.00,2013-04-26 01:32:00,
2013-04-25 21:37:00,73.5,63.1,30.13,ESE,105,3.0,3.0,70,0.00,,CLR,0.01,0.00,VWS V14.00,2013-04-26 01:37:00,
2013-04-25 21:42:00,73.5,63.1,30.13,ESE,105,1.0,3.0,70,0.00,,CLR,0.01,0.00,VWS V14.00,2013-04-26 01:42:00,
2013-04-25 21:47:00,73.5,63.1,30.14,ESE,105,0.0,1.0,70,0.00,,CLR,0.01,0.00,VWS V14.00,2013-04-26 01:47:00,
2013-04-25 21:52:00,73.4,63.4,30.14,ESE,105,0.0,0.0,71,0.00,,CLR,0.01,0.00,VWS V14.00,2013-04-26 01:52:00,
2013-04-25 21:57:00,73.2,63.2,30.14,ESE,105,1.0,1.0,71,0.00,,CLR,0.01,0.00,VWS V14.00,2013-04-26 01:57:00,
2013-04-25 22:02:00,73.1,63.5,30.14,ESE,105,0.0,1.0,72,0.00,,CLR,0.01,0.00,VWS V14.00,2013-04-26 02:02:00,
2013-04-25 22:07:00,73.0,63.0,30.14,ESE,105,0.0,0.0,71,0.00,,CLR,0.01,0.00,VWS V14.00,2013-04-26 02:07:00,
2013-04-25 22:12:00,73.1,63.5,30.15,ESE,105,0.0,2.0,72,0.00,,CLR,0.01,0.00,VWS V14.00,2013-04-26 02:12:00,
2013-04-25 22:17:00,73.0,63.5,30.15,ESE,105,0.0,3.0,72,0.00,,CLR,0.01,0.00,VWS V14.00,2013-04-26 02:17:00,
2013-04-25 22:22:00,73.0,63.5,30.15,ESE,105,0.0,3.0,72,0.00,,CLR,0.01,0.00,VWS V14.00,2013-04-26 02:22:00,
2013-04-25 22:27:00,73.0,63.5,30.15,ESE,105,0.0,1.0,72,0.00,,CLR,0.01,0.00,VWS V14.00,2013-04-26 02:27:00,
2013-04-25 22:32:00,72.9,63.8,30.15,ESE,105,0.0,0.0,73,0.00,,CLR,0.01,0.00,VWS V14.00,2013-04-26 02:32:00,
2013-04-25 22:37:00,72.8,63.7,30.15,ESE,105,0.0,0.0,73,0.00,,CLR,0.01,0.00,VWS V14.00,2013-04-26 02:37:00,
2013-04-25 22:42:00,72.7,63.5,30.15,ESE,105,0.0,0.0,73,0.00,,CLR,0.01,0.00,VWS V14.00,2013-04-26 02:42:00,
2013-04-25 22:47:00,72.6,63.8,30.15,ESE,105,0.0,0.0,74,0.00,,CLR,0.01,0.00,VWS V14.00,2013-04-26 02:47:00,
2013-04-25 22:52:00,72.6,63.8,30.15,ESE,105,0.0,0.0,74,0.00,,CLR,0.01,0.00,VWS V14.00,2013-04-26 02:52:00,
2013-04-25 22:57:00,72.6,63.8,30.15,ESE,105,0.0,0.0,74,0.00,,CLR,0.01,0.00,VWS V14.00,2013-04-26 02:57:00,
2013-04-25 23:02:00,72.4,63.7,30.15,ESE,105,0.0,1.0,74,0.00,,CLR,0.01,0.00,VWS V14.00,2013-04-26 03:02:00,
2013-04-25 23:07:00,72.3,63.6,30.16,ESE,105,0.0,1.0,74,0.00,,CLR,0.01,0.00,VWS V14.00,2013-04-26 03:07:00,
2013-04-25 23:12:00,72.3,63.9,30.15,ESE,105,0.0,0.0,75,0.00,,CLR,0.01,0.00,VWS V14.00,2013-04-26 03:12:00,
2013-04-25 23:17:00,72.3,63.9,30.15,ESE,105,0.0,2.0,75,0.00,,CLR,0.01,0.00,VWS V14.00,2013-04-26 03:17:00,
2013-04-25 23:22:00,72.2,63.5,30.15,ESE,105,2.0,3.0,74,0.00,,CLR,0.01,0.00,VWS V14.00,2013-04-26 03:22:00,
2013-04-25 23:27:00,72.1,63.8,30.15,ESE,105,0.0,0.0,75,0.00,,CLR,0.01,0.00,VWS V14.00,2013-04-26 03:27:00,
2013-04-25 23:32:00,72.1,63.8,30.15,ESE,105,0.0,0.0,75,0.00,,CLR,0.01,0.00,VWS V14.00,2013-04-26 03:32:00,
2013-04-25 23:37:00,72.1,63.8,30.15,ESE,105,1.0,2.0,75,0.00,,CLR,0.01,0.00,VWS V14.00,2013-04-26 03:37:00,
2013-04-25 23:43:00,72.1,63.8,30.15,ESE,105,0.0,0.0,75,0.00,,CLR,0.01,0.00,VWS V14.00,2013-04-26 03:43:00,
2013-04-25 23:47:00,71.9,63.2,30.15,ESE,105,1.0,4.0,74,0.00,,CLR,0.01,0.00,VWS V14.00,2013-04-26 03:47:00,
2013-04-25 23:53:00,71.7,63.0,30.14,ESE,105,0.0,2.0,74,0.00,,CLR,0.01,0.00,VWS V14.00,2013-04-26 03:53:00,
2013-04-25 23:58:00,71.7,63.0,30.14,ESE,105,0.0,0.0,74,0.00,,CLR,0.01,0.00,VWS V14.00,2013-04-26 03:58:00,